This is the latest recevied weather packets stored in our database for station/object E25HML-13. If no packets are shown the sender has not sent any weather packets the latest 10 day(s).
| Time | Temp. | Humidity | Pressure | Rain* | Wind** | Luminosity | Snow |
|---|---|---|---|---|---|---|---|
| 1777952314 | 30.56° C | 74% | 1009.7 hPa | - | - | - | - |
| 1777952014 | 30.56° C | 75% | 1009.8 hPa | - | - | - | - |
| 1777951714 | 30.56° C | 75% | 1009.8 hPa | - | - | - | - |
| 1777951415 | 30.56° C | 75% | 1010 hPa | - | - | - | - |
| 1777951114 | 30.56° C | 76% | 1010 hPa | - | - | - | - |
| 1777950815 | 30.56° C | 76% | 1010 hPa | - | - | - | - |
| 1777950515 | 30.56° C | 76% | 1010.1 hPa | - | - | - | - |
| 1777950214 | 30.56° C | 76% | 1010 hPa | - | - | - | - |
| 1777949914 | 30° C | 77% | 1010.1 hPa | - | - | - | - |
| 1777949614 | 30.56° C | 76% | 1010 hPa | - | - | - | - |
| 1777949314 | 30° C | 77% | 1010 hPa | - | - | - | - |
| 1777949014 | 30° C | 76% | 1010 hPa | - | - | - | - |
| 1777948714 | 30.56° C | 75% | 1010 hPa | - | - | - | - |
| 1777948413 | 30.56° C | 75% | 1009.7 hPa | - | - | - | - |
| 1777948113 | 30.56° C | 73% | 1009.7 hPa | - | - | - | - |
| 1777947814 | 30.56° C | 74% | 1009.8 hPa | - | - | - | - |
| 1777947515 | 30.56° C | 73% | 1009.8 hPa | - | - | - | - |
| 1777947214 | 30.56° C | 73% | 1009.8 hPa | - | - | - | - |
| 1777946914 | 30.56° C | 73% | 1009.9 hPa | - | - | - | - |
| 1777946614 | 30.56° C | 73% | 1009.7 hPa | - | - | - | - |
| 1777946315 | 31.11° C | 70% | 1009.7 hPa | - | - | - | - |
| 1777946014 | 31.11° C | 70% | 1009.9 hPa | - | - | - | - |
| 1777945714 | 31.11° C | 69% | 1010 hPa | - | - | - | - |
| 1777945414 | 31.67° C | 68% | 1009.9 hPa | - | - | - | - |
| 1777945114 | 31.11° C | 68% | 1009.9 hPa | - | - | - | - |
* Rain since midnight (hover to see other rain measurements)
** Current wind speed in m/s (hover to see current wind gust speed)